Content
SEND FEEDBACK

Daily
Averages
Monthly
Summary
United States of America

WILMINGTON, NORTH CAROLINA


Home > North America > United States > North Carolina
Elevation: 72 feet     Latitude: 34 16N     Longitude: 077 54W

WEATHER
 
SELECT A DAY
Number of Records: 208,780;   Date Range: 1/1/95 - 7/26/14
 
SHARE

PRINT THIS DATA

[ ← Previous Day ]
WEATHER ALMANAC - NOVEMBER 16, 2013
[ Next Day → ]
[ °C ]   °F
Weather ElementAverageHighLow
Temperature62.6 °F75 °F (11:53 am)59 °F (3:07 am)
Dewpoint57.3 °F61 °F (9:53 am)55 °F (2:53 pm)
Humidity84.2 %94 % (3:51 am)51 % (12:53 pm)
Barometer30.20 in30.24 in (9:36 am)30.17 in (3:53 pm)
Wind Speed3.1 mph9.2 mph (12:53 pm)
Weather ElementAverage
Visibility5.3 mi
Wind DirectionNNE (30.2 °)

Weather ElementTotal
Precipitation0.03 in
Cooling Degree Days2 (Base 65)
Growing Degree Days17 (Base 50)
Averaged from 49 records on November 16, 2013
WEATHER CONDITIONS BREAKOUT
WIND DIRECTION BREAKOUT
WEATHER BY HOUR - NOVEMBER 16, 2013
[ °C ]   °F
Local TimeTemperatureDewpointHumidityBarometerVisibilityWind DirectionWind SpeedGust SpeedPrecipitationEventsConditions
12:53 AM61.0 °F57.9 °F90 %30.20 in10.0 miCalmOvercast
1:34 AM60.8 °F57.2 °F88 %30.20 in6.0 miNE (40°)4.6 mphOvercast
1:53 AM61.0 °F57.9 °F90 %30.20 in10.0 miENE (70°)3.5 mphOvercast
2:48 AM60.8 °F57.2 °F88 %30.19 in9.0 miNE (50°)3.5 mph0.00 inOvercast
2:53 AM60.1 °F57.0 °F90 %30.19 in8.0 miENE (70°)3.5 mph0.00 inMostly Cloudy
3:07 AM59.0 °F55.4 °F88 %30.18 in1.5 miENE (70°)3.5 mphMostly Cloudy
3:10 AM59.0 °F55.4 °F88 %30.18 in0.8 miCalmMostly Cloudy
3:51 AM59.0 °F57.2 °F94 %30.19 in0.2 miCalmFogFog
3:53 AM60.1 °F57.0 °F90 %30.19 in0.5 miCalmFogFog
4:12 AM59.0 °F57.2 °F94 %30.19 in0.5 miCalmFogFog
4:41 AM59.0 °F55.4 °F88 %30.19 in0.5 miNE (40°)3.5 mphFogFog
4:53 AM59.0 °F55.9 °F90 %30.19 in0.8 miNNE (30°)4.6 mphOvercast
5:01 AM59.0 °F55.4 °F88 %30.19 in1.5 miNNE (30°)4.6 mphOvercast
5:07 AM59.0 °F57.2 °F94 %30.19 in3.0 miNE (40°)3.5 mphOvercast
5:26 AM59.0 °F57.2 °F94 %30.20 in2.0 miNNE (30°)3.5 mphOvercast
5:33 AM59.0 °F57.2 °F94 %30.20 in1.5 miCalmOvercast
5:46 AM60.8 °F57.2 °F88 %30.20 in3.0 miCalmOvercast
5:53 AM60.1 °F57.0 °F90 %30.21 in3.0 miCalmOvercast
5:58 AM60.8 °F57.2 °F88 %30.21 in1.8 miCalm0.00 inRainLight Rain
6:07 AM60.8 °F57.2 °F88 %30.21 in1.0 miCalm0.00 inRainLight Rain
6:31 AM60.8 °F57.2 °F88 %30.22 in1.5 miCalm0.00 inOvercast
6:33 AM60.8 °F57.2 °F88 %30.22 in2.0 miCalm0.00 inRainLight Rain
6:41 AM59.0 °F57.2 °F94 %30.22 in2.5 miCalm0.01 inRainLight Rain
6:48 AM60.8 °F57.2 °F88 %30.22 in4.0 miCalm0.01 inRainLight Rain
6:53 AM59.0 °F57.0 °F93 %30.22 in4.0 miNE (40°)3.5 mph0.01 inOvercast
7:31 AM60.8 °F57.2 °F88 %30.22 in7.0 miNorth (10°)3.5 mphOvercast
7:53 AM61.0 °F57.9 °F90 %30.23 in10.0 miNNE (30°)5.8 mphOvercast
8:17 AM60.8 °F59.0 °F94 %30.23 in1.8 miNNE (20°)4.6 mphOvercast
8:21 AM60.8 °F57.2 °F88 %30.23 in0.8 miNE (40°)4.6 mphOvercast
8:30 AM60.8 °F59.0 °F94 %30.23 in0.2 miNNE (30°)4.6 mphFogFog
8:53 AM62.1 °F59.0 °F90 %30.23 in0.5 miNNE (30°)4.6 mphFogFog
9:14 AM62.6 °F60.8 °F94 %30.23 in1.8 miNE (40°)3.5 mphOvercast
9:16 AM62.6 °F60.8 °F94 %30.23 in3.0 miNE (40°)3.5 mphOvercast
9:36 AM64.4 °F60.8 °F88 %30.24 in10.0 miCalmScattered Clouds
9:53 AM69.1 °F61.0 °F75 %30.24 in10.0 miENE (60°)4.6 mphClear
10:53 AM73.9 °F60.1 °F62 %30.23 in10.0 miNE (40°)4.6 mphClear
11:53 AM75.0 °F57.0 °F53 %30.21 in10.0 miVariable4.6 mphPartly Cloudy
12:53 PM75.0 °F55.9 °F51 %30.19 in10.0 miEast (90°)9.2 mphPartly Cloudy
1:53 PM75.0 °F55.9 °F51 %30.18 in10.0 miEast (90°)8.1 mphClear
2:53 PM73.9 °F55.0 °F52 %30.18 in10.0 miEast (80°)8.1 mphClear
3:53 PM73.0 °F55.9 °F55 %30.17 in10.0 miENE (70°)5.8 mphClear
4:53 PM69.1 °F57.0 °F65 %30.18 in10.0 miEast (100°)5.8 mphClear
5:53 PM66.0 °F57.0 °F73 %30.19 in10.0 miENE (70°)3.5 mphClear
6:53 PM61.0 °F55.9 °F83 %30.19 in10.0 miCalmClear
7:53 PM61.0 °F57.0 °F87 %30.20 in10.0 miNNE (30°)5.8 mphMostly Cloudy
8:53 PM60.1 °F55.9 °F86 %30.20 in10.0 miNNE (30°)5.8 mphPartly Cloudy
9:53 PM61.0 °F57.0 °F87 %30.19 in8.0 miNE (40°)4.6 mphOvercast
10:53 PM60.1 °F55.9 °F86 %30.20 in7.0 miNNE (30°)5.8 mphScattered Clouds
11:53 PM61.0 °F57.0 °F87 %30.21 in9.0 miCalmOvercast
Hourly data recorded from KILM, located miles away from Wilmington, North Carolina







STORIES FROM OUR PARTNERS